x

9439040 - Astoria, Or (asto3) Weather Station

10:54 - Sun 5th Jul 2015 All times are PDT. -7 hours from GMT.

  • Wind
    8mph, 13mph gusts
  • Sea Temp 72°f
  • Aire Temp 61°f
  • Sea Pressure 1014.9mb
  • 9439040 - Astoria, Or
  • 9439040 - Astoria, Or

More Historic Weather Station data

Upgrade to MSW Pro to gain access to the past 30 days of data for over 8000 Wavebouys and Weather Stations around the globe.

Join Pro

Comparision Forecast

View Surf forecast
   
dom 07/05 10:54 8 13 mph 1014.9mb 72f 61f
10:48 8 13 mph 1014.9mb 71f 61f
10:42 6 10 mph 1014.9mb 71f 61f
10:36 7 13 mph 1014.9mb 71f 61f
10:30 7 11 mph 1014.9mb 71f 61f
10:24 7 13 mph 1014.9mb 71f 61f
10:18 7 11 mph 1014.8mb 70f 61f
10:12 8 13 mph 1014.8mb 70f 61f
10:06 6 11 mph 1014.8mb 70f 61f
10:00 6 10 mph 1014.7mb 70f 61f
9:54 7 13 mph 1014.7mb 70f 61f
9:48 7 11 mph 1014.7mb 70f 61f
9:42 6 11 mph 1014.6mb 70f 61f
9:36 6 10 mph 1014.6mb 70f 61f
9:30 6 11 mph 1014.5mb 70f 61f
9:24 5 10 mph 1014.4mb 71f 61f
9:18 6 10 mph 1014.3mb 71f 61f
9:12 6 10 mph 1014.3mb 71f 61f
9:06 8 11 mph 1014.2mb 71f 61f
9:00 7 11 mph 1014.2mb 71f 61f
8:54 7 11 mph 1014.1mb 70f 61f
8:48 7 11 mph 1014mb 70f 62f
8:42 7 10 mph 1014mb 70f 62f
8:36 2 10 mph 1013.9mb 70f 62f
8:30 7 11 mph 1013.9mb 70f 62f
8:24 7 11 mph 1013.9mb 70f 62f
8:18 7 11 mph 1013.8mb 69f 62f
8:12 7 13 mph 1013.8mb 69f 62f
8:06 6 10 mph 1013.7mb 69f 62f
8:00 3 14 mph 1013.7mb 69f 62f
7:54 7 13 mph 1013.6mb 69f 63f
7:48 7 11 mph 1013.6mb 70f 63f
7:42 3 13 mph 1013.6mb 71f 63f
7:36 2 10 mph 1013.6mb 71f 64f
7:30 3 8 mph 1013.5mb 71f 63f
7:24 3 10 mph 1013.5mb 71f 64f
7:18 3 9 mph 1013.5mb 71f 63f
7:12 5 10 mph 1013.4mb 71f 64f
7:06 2 8 mph 1013.5mb 71f 63f
7:00 2 11 mph 1013.4mb 71f 64f
6:54 5 10 mph 1013.4mb 71f 64f
6:48 2 14 mph 1013.4mb 71f 64f
6:42 3 11 mph 1013.4mb 71f 64f
6:36 3 14 mph 1013.3mb 71f 64f
6:30 8 14 mph 1013.4mb 71f 64f
6:24 7 10 mph 1013.4mb 71f 64f
6:18 7 13 mph 1013.4mb 71f 64f
6:12 3 11 mph 1013.4mb 71f 64f
6:06 5 16 mph 1013.4mb 71f 64f
6:00 7 14 mph 1013.4mb 71f 64f
5:54 7 15 mph 1013.4mb 71f 64f
5:48 2 8 mph 1013.4mb 71f 64f
5:42 3 10 mph 1013.4mb 71f 64f
5:36 2 8 mph 1013.4mb 71f 64f
5:30 3 7 mph 1013.4mb 71f 64f
5:24 3 8 mph 1013.4mb 71f 65f
5:18 2 10 mph 1013.4mb 71f 65f
5:12 2 8 mph 1013.4mb 71f 65f
5:06 2 8 mph 1013.3mb 71f 65f
5:00 3 8 mph 1013.3mb 71f 65f
4:54 5 9 mph 1013.3mb 71f 65f
4:48 3 8 mph 1013.3mb 71f 65f
4:42 3 8 mph 1013.3mb 71f 65f
4:36 3 9 mph 1013.2mb 71f 65f
4:30 2 8 mph 1013.2mb 71f 65f
4:24 3 9 mph 1013.2mb 72f 65f
4:18 3 9 mph 1013.1mb 72f 65f
4:12 5 11 mph 1013.1mb 72f 65f
4:06 5 8 mph 1013.1mb 72f 65f
4:00 2 8 mph 1013.1mb 72f 65f
3:54 2 8 mph 1013.1mb 72f 65f
3:48 3 9 mph 1013.1mb 73f 65f
3:42 3 10 mph 1013.1mb 73f 65f
3:36 2 9 mph 1013mb 73f 65f
3:30 3 8 mph 1012.9mb 73f 65f
3:24 2 9 mph 1012.9mb 73f 65f
3:18 2 9 mph 1012.8mb 73f 66f
3:12 3 9 mph 1012.8mb 73f 65f
3:06 3 10 mph 1012.7mb 73f 65f
3:00 3 8 mph 1012.7mb 73f 66f
2:54 6 11 mph 1012.6mb 73f 65f
2:48 5 11 mph 1012.6mb 73f 65f
2:42 2 11 mph 1012.6mb 73f 66f
2:36 3 10 mph 1012.6mb 73f 65f
2:30 5 9 mph 1012.6mb 73f 65f
2:24 3 8 mph 1012.5mb 73f 66f
2:18 3 8 mph 1012.4mb 73f 66f
2:12 3 8 mph 1012.3mb 73f 66f
2:06 5 11 mph 1012.3mb 73f 65f
2:00 3 9 mph 1012.3mb 73f 66f
1:54 3 8 mph 1012.2mb 73f 65f
1:48 5 10 mph 1012.1mb 73f 65f
1:42 3 9 mph 1012mb 73f 65f
1:36 3 11 mph 1012mb 73f 65f
1:30 5 11 mph 1012mb 73f 65f
1:24 2 10 mph 1012mb 73f 65f
1:18 3 10 mph 1011.8mb 73f 65f
1:12 5 9 mph 1011.8mb 73f 65f
1:06 2 8 mph 1011.7mb 73f 66f
1:00 3 9 mph 1011.7mb 73f 66f
12:54 2 9 mph 1011.7mb 73f 66f
12:48 2 10 mph 1011.6mb 73f 66f
12:42 2 7 mph 1011.6mb 73f 66f
12:36 2 9 mph 1011.6mb 73f 66f
12:30 2 7 mph 1011.6mb 72f 66f
12:24 2 6 mph 1011.6mb 72f 66f
12:18 1 7 mph 1011.5mb 72f 66f
12:12 2 7 mph 1011.5mb 72f 66f
12:06 2 9 mph 1011.5mb 72f 66f
12:00 2 9 mph 1011.5mb 72f 66f
11:54 1 7 mph 1011.4mb 72f 66f
11:48 2 6 mph 1011.4mb 72f 66f
11:42 2 7 mph 1011.3mb 72f 66f
11:36 2 6 mph 1011.3mb 71f 66f
11:30 2 5 mph 1011.4mb 71f 66f
11:24 2 6 mph 1011.4mb 71f 66f
11:18 2 6 mph 1011.3mb 71f 66f
11:12 1 6 mph 1011.3mb 71f 65f
11:06 1 5 mph 1011.3mb 71f 65f
11:00 2 5 mph 1011.4mb 71f 65f
10:54 1 6 mph 1011.4mb 70f 65f
10:48 2 6 mph 1011.4mb 70f 64f
10:42 3 7 mph 1011.4mb 70f 64f
10:36 2 6 mph 1011.3mb 69f 63f
10:30 2 5 mph 1011.3mb 69f 64f
10:24  -  6 mph 1011.3mb 69f 64f
10:18 2 5 mph 1011.3mb 69f 63f
10:12 1 5 mph 1011.2mb 69f 63f
10:06 2 7 mph 1011.2mb 69f 62f
10:00 3 5 mph 1011.2mb 69f 62f
9:54 2 6 mph 1011.2mb 69f 62f
9:48 1 5 mph 1011.2mb 69f 62f
9:42 3 6 mph 1011.2mb 69f 60f
9:36 5 7 mph 1011.3mb 69f 60f
9:30 2 3 mph 1011.3mb 69f 61f
9:24 2 5 mph 1011.3mb 69f 60f
9:18 2 5 mph 1011.3mb 69f 61f
9:12 1 3 mph 1011.2mb 69f 61f
9:06  -  2 mph 1011.2mb 69f 60f
9:00  -  2 mph 1011.2mb 69f 60f
8:54 1 3 mph 1011.2mb 69f 60f
8:48 2 3 mph 1011.2mb 69f 60f
8:42  -  1 mph 1011.2mb 69f 60f
8:36  -  1 mph 1011.1mb 69f 60f
8:30  -  3 mph 1011.1mb 69f 59f
8:24 3
mph
1011.1mb 69f 59f
8:18  -  2 mph 1011.1mb 69f 59f
8:12 2 3 mph 1011mb 69f 59f
8:06  -  3 mph 1011mb 69f 58f
8:00 2 5 mph 1011mb 69f 58f
7:54 1 2 mph 1011.1mb 69f 58f
7:48 1 2 mph 1011.1mb 69f 58f
7:42  -  2 mph 1011mb 69f 58f
7:36  -  2 mph 1011.1mb 69f 58f
7:30  -  1 mph 1011mb 69f 58f
7:24 1 3 mph 1011mb 69f 58f
7:18 2 3 mph 1010.9mb 69f 58f
7:12  -  3 mph 1010.9mb 69f 58f
7:06  -  5 mph 1010.9mb 69f 58f
7:00 3 5 mph 1010.9mb 69f 59f
6:54 3 7 mph 1010.9mb 69f 58f
6:48 6 8 mph 1010.8mb 69f 58f
6:42 5 6 mph 1010.8mb 69f 58f
6:36 6 7 mph 1010.7mb 69f 58f
6:30 5 6 mph 1010.7mb 69f 58f
6:24 5 6 mph 1010.7mb 69f 58f
6:18 6 7 mph 1010.7mb 70f 58f
6:12 2 5 mph 1010.7mb 70f 59f
6:06 2 3 mph 1010.7mb 70f 58f
6:00 3
mph
1010.8mb 70f 58f
5:54 2 5 mph 1010.7mb 70f 58f
5:48 2 5 mph 1010.6mb 70f 58f
5:42 2 5 mph 1010.6mb 70f 59f
5:36 2 6 mph 1010.5mb 70f 59f
5:30 5 6 mph 1010.4mb 70f 59f
5:24 5
mph
1010.3mb 70f 58f
5:18 3 6 mph 1010.3mb 70f 58f
5:12 6 7 mph 1010.3mb 70f 58f
5:06 3 5 mph 1010.2mb 70f 58f
5:00 3 7 mph 1010.2mb 69f 59f
4:54 6 8 mph 1010.3mb 69f 58f
4:48 2 6 mph 1010.3mb 69f 59f
4:42 3 8 mph 1010.2mb 69f 59f
4:36 5 8 mph 1010.2mb 69f 59f
4:30 3 6 mph 1010.2mb 69f 58f
4:24 6
mph
1010.2mb 69f 58f
4:18 3 5 mph 1010.2mb 69f 58f
4:12 3 6 mph 1010.1mb 69f 59f
4:06 3 5 mph 1010.1mb 69f 58f
4:00 5 6 mph 1010.1mb 69f 59f
3:54 5 6 mph 1010.1mb 69f 58f
3:48 3 6 mph 1010.1mb 69f 59f
3:42 2 7 mph 1010mb 69f 58f
3:36 5 7 mph 1010mb 69f 58f
3:30 3 7 mph 1010mb 69f 58f
3:24 2 5 mph 1010mb 70f 58f
3:18 3 6 mph 1010.1mb 70f 59f
3:12 6 8 mph 1010mb 70f 58f
3:06 5 6 mph 1010mb 70f 59f
3:00 3 5 mph 1009.9mb 71f 59f
2:54 2 5 mph 1010mb 71f 59f
2:48 3 5 mph 1010mb 71f 59f
2:42 1 5 mph 1010mb 71f 59f
2:36 2 3 mph 1010mb 71f 60f
2:30  -  2 mph 1009.9mb 71f 59f
2:24 2 3 mph 1009.9mb 72f 59f
2:18 3 5 mph 1009.9mb 72f 59f
2:12 3
mph
1010mb 72f 59f
2:06 1 5 mph 1010mb 72f 59f
2:00 5 7 mph 1009.9mb 72f 59f
1:54 5 7 mph 1009.9mb 72f 59f
1:48 6 7 mph 1009.9mb 72f 60f
1:42 6 8 mph 1010.1mb 72f 59f
1:36 3 5 mph 1010mb 72f 60f
1:30 2 3 mph 1010mb 72f 60f
1:24 2 5 mph 1009.9mb 72f 60f
1:18 3 5 mph 1009.9mb 72f 60f
1:12 2 6 mph 1010mb 72f 60f
1:06 5 7 mph 1010mb 72f 60f
1:00 3 7 mph 1010.1mb 72f 60f
12:54 6 7 mph 1010.1mb 72f 60f
12:48 5 7 mph 1010.1mb 72f 60f
12:42 5 8 mph 1010.2mb 72f 60f
12:36 6 8 mph 1010.2mb 72f 60f
12:30 5 9 mph 1010.3mb 72f 60f
12:24 5 8 mph 1010.2mb 72f 60f
12:18 6 9 mph 1010.3mb 72f 60f
12:12 6 8 mph 1010.4mb 72f 60f
12:06 5 9 mph 1010.4mb 72f 60f
12:00 6 8 mph 1010.5mb 72f 61f
sáb 07/04 11:54 3 8 mph 1010.4mb 72f 61f
11:48  -  mph - - 61f
11:42  -  mph - - 61f
11:36  -  mph - - 61f
11:30 6 9 mph 1010.5mb 72f 61f
11:24 6 8 mph 1010.4mb 72f 62f
11:18 6 9 mph 1010.5mb 72f 62f
11:12 6 9 mph 1010.5mb 72f 62f
11:06 7 9 mph 1010.4mb 72f 62f
11:00 7 9 mph 1010.4mb 72f 62f
10:54 6 8 mph 1010.5mb 72f 62f
10:48 6 8 mph 1010.4mb 72f 63f
10:42 5 8 mph 1010.4mb 72f 63f
10:36 6 8 mph 1010.5mb 71f 63f
10:30 5 9 mph 1010.5mb 71f 63f
10:24 7 9 mph 1010.5mb 71f 63f
10:18 3 9 mph 1010.6mb 71f 63f
10:12 6 9 mph 1010.6mb 71f 63f
10:06 7 10 mph 1010.5mb 71f 63f
10:00 7 10 mph 1010.5mb 71f 63f
9:54 5 9 mph 1010.5mb 71f 63f
9:48 6 9 mph 1010.4mb 71f 63f
9:42 6 9 mph 1010.3mb 71f 63f
9:36 3 9 mph 1010.2mb 71f 64f
9:30 7 9 mph 1010.1mb 71f 64f
9:24 7 9 mph 1010.1mb 71f 64f
9:18 6 9 mph 1010mb 71f 64f
9:12 7 9 mph 1010mb 71f 64f
9:06 5 9 mph 1010mb 71f 64f
9:00 7 10 mph 1010mb 71f 65f
8:54 2 8 mph 1010mb 71f 65f
8:48 3 10 mph 1010mb 71f 65f
8:42 3 11 mph 1009.9mb 71f 65f
8:36 6 10 mph 1009.9mb 71f 65f
8:30 2 9 mph 1009.8mb 71f 66f
8:24 2 9 mph 1009.8mb 71f 66f
8:18 3 9 mph 1009.7mb 70f 66f
8:12 5 9 mph 1009.7mb 70f 66f
8:06 5 9 mph 1009.7mb 70f 66f
8:00 2 7 mph 1009.7mb 70f 67f
7:54 3 8 mph 1009.7mb 70f 67f
7:48 3 10 mph 1009.7mb 70f 67f
7:42 5 9 mph 1009.7mb 70f 67f
7:36 3 9 mph 1009.7mb 70f 67f
7:30 3 8 mph 1009.6mb 70f 68f
7:24 3 10 mph 1009.6mb 70f 68f
7:18 2 9 mph 1009.6mb 70f 69f
7:12 2 8 mph 1009.6mb 70f 69f
7:06 3 10 mph 1009.7mb 70f 69f
7:00 5 9 mph 1009.7mb 70f 69f
6:54 3 9 mph 1009.7mb 71f 68f
6:48 3 11 mph 1009.7mb 71f 68f
6:42 3 9 mph 1009.8mb 71f 68f
6:36 5 11 mph 1009.8mb 71f 68f
6:30 3 10 mph 1009.9mb 71f 69f
6:24 3 8 mph 1009.9mb 71f 69f
6:18 2 9 mph 1009.9mb 70f 68f
6:12 3 8 mph 1010mb 70f 68f
6:06 2 9 mph 1010mb 71f 68f
6:00 3 10 mph 1010mb 71f 68f
5:54 5 10 mph 1010.1mb 71f 68f
5:48 2 8 mph 1010.2mb 71f 68f
5:42 3 10 mph 1010.2mb 71f 68f
5:36 3 9 mph 1010.2mb 71f 68f
5:30 3 8 mph 1010.1mb 71f 68f
5:24 3 9 mph 1010.1mb 71f 68f
5:18 5 8 mph 1010.1mb 71f 68f
5:12 5 9 mph 1010.1mb 71f 68f
5:06 2 13 mph 1010.1mb 71f 68f
5:00 3 10 mph 1010.3mb 71f 67f
4:54 3 10 mph 1010.4mb 71f 67f
4:48 2 9 mph 1010.5mb 70f 67f
4:42 3 9 mph 1010.6mb 70f 67f
4:36 3 9 mph 1010.6mb 70f 67f
4:30 5 11 mph 1010.7mb 70f 67f
4:24 5 9 mph 1010.6mb 70f 67f
4:18 3 9 mph 1010.7mb 70f 67f
4:12 3 7 mph 1010.7mb 70f 68f
4:06 3 9 mph 1010.7mb 71f 68f
4:00 3 9 mph 1010.6mb 71f 68f
3:54 5 10 mph 1010.7mb 71f 68f
3:48 5 10 mph 1010.7mb 71f 69f
3:42 2 11 mph 1010.8mb 72f 68f
3:36 6 10 mph 1010.9mb 71f 68f
3:30 2 10 mph 1011mb 72f 68f
3:24 2 9 mph 1011mb 72f 68f
3:18 5 9 mph 1011mb 72f 68f
3:12 2 9 mph 1011.1mb 72f 68f
3:06 3 10 mph 1011.1mb 72f 68f
3:00 5 9 mph 1011.2mb 72f 67f
2:54 3 13 mph 1011.2mb 72f 67f
2:48 5 9 mph 1011.3mb 72f 67f
2:42 5 9 mph 1011.3mb 72f 67f
2:36 2 7 mph 1011.4mb 72f 68f
2:30 2 11 mph 1011.4mb 72f 68f
2:24 2 9 mph 1011.4mb 72f 68f
2:18 2 7 mph 1011.4mb 72f 68f
2:12 3 8 mph 1011.4mb 72f 68f
2:06 2 7 mph 1011.5mb 72f 68f
2:00 3 7 mph 1011.5mb 72f 68f
1:54 2 8 mph 1011.5mb 72f 68f
1:48 1 6 mph 1011.5mb 72f 68f
1:42 2 7 mph 1011.7mb 72f 68f
1:36 2 6 mph 1011.7mb 72f 69f
1:30 2 8 mph 1011.7mb 72f 68f
1:24 2 9 mph 1011.6mb 72f 68f
1:18 2 8 mph 1011.8mb 72f 68f
1:12 2 8 mph 1011.8mb 72f 68f
1:06 2 8 mph 1011.8mb 72f 69f
1:00 2 6 mph 1011.8mb 72f 68f
12:54 2 7 mph 1011.9mb 72f 68f
12:48 1 7 mph 1011.9mb 72f 68f
12:42 2 6 mph 1011.9mb 72f 68f
12:36 1 6 mph 1011.9mb 72f 68f
12:30 2 6 mph 1012mb 72f 69f
12:24 2 7 mph 1012mb 72f 68f
12:18 2 6 mph 1012mb 72f 68f
12:12 1 5 mph 1012mb 72f 68f
12:06 2 5 mph 1012mb 72f 68f
12:00 1 5 mph 1012.1mb 72f 67f
11:54 2 6 mph 1012.1mb 72f 67f
11:48 2 7 mph 1012.2mb 72f 67f
11:42 2 6 mph 1012.2mb 72f 67f
11:36 2 6 mph 1012.3mb 72f 67f
11:30 1 6 mph 1012.4mb 72f 67f
11:24 2 6 mph 1012.4mb 72f 67f
11:18 1 5 mph 1012.4mb 72f 67f
11:12  -  5 mph 1012.3mb 72f 67f
11:06 2 5 mph 1012.3mb 72f 66f
11:00 2 5 mph 1012.4mb 71f 66f
10:54 3 6 mph 1012.5mb 71f 64f
10:48 2 6 mph 1012.5mb 70f 64f
10:42 3 6 mph 1012.5mb 70f 64f
10:36 5 7 mph 1012.5mb 70f 64f
10:30 1 5 mph 1012.5mb 69f 64f
10:24 1 3 mph 1012.5mb 69f 64f
10:18 2 3 mph 1012.6mb 69f 63f
10:12 3 5 mph 1012.7mb 69f 62f
10:06 3 5 mph 1012.8mb 69f 62f
10:00 5 6 mph 1012.8mb 69f 62f
9:54 3 5 mph 1012.8mb 69f 61f
9:48 5 6 mph 1012.8mb 69f 61f
9:42 5 6 mph 1012.8mb 69f 61f
9:36 5 6 mph 1012.9mb 69f 61f
9:30 5 7 mph 1012.8mb 69f 61f
9:24 6 8 mph 1012.8mb 69f 61f
9:18 6 8 mph 1012.8mb 69f 61f
9:12 3 6 mph 1012.8mb 69f 61f
9:06 2 5 mph 1012.8mb 69f 61f
9:00 3 5 mph 1012.9mb 69f 61f
8:54 3 5 mph 1012.9mb 69f 61f
8:48 2 3 mph 1012.9mb 69f 61f
8:42 2 5 mph 1012.9mb 69f 61f
8:36 3 6 mph 1013mb 69f 60f
8:30 5 7 mph 1013.1mb 69f 60f
8:24 5 6 mph 1013.1mb 69f 60f
8:18  -  2 mph 1013.1mb 69f 61f
8:12 1 2 mph 1013.1mb 69f 60f
8:06 1 2 mph 1013.1mb 69f 60f
8:00 1 3 mph 1013.1mb 69f 60f
7:54  -  3 mph 1013.1mb 69f 60f
7:48 2 3 mph 1013mb 69f 60f
7:42 1 3 mph 1013mb 69f 60f
7:36 1 3 mph 1013.1mb 69f 60f
7:30 1 3 mph 1013mb 69f 60f
7:24  -  2 mph 1013mb 69f 60f
7:18 1 2 mph 1013mb 69f 59f
7:12 1 2 mph 1012.9mb 69f 59f
7:06  -  1 mph 1013mb 69f 59f
7:00  -  2 mph 1013mb 69f 59f
6:54  -  2 mph 1013mb 69f 58f
6:48 1 2 mph 1012.9mb 69f 58f
6:42 1 2 mph 1012.9mb 69f 58f
6:36 1 2 mph 1012.9mb 69f 58f
6:30 2 3 mph 1012.9mb 69f 57f
6:24 2 5 mph 1012.9mb 69f 57f
6:18 5 6 mph 1012.8mb 69f 57f
6:12 5 6 mph 1012.8mb 69f 57f
6:06 6 7 mph 1012.8mb 69f 57f
6:00 5 7 mph 1012.7mb 69f 57f
5:54 5 6 mph 1012.8mb 69f 57f
5:48 3
mph
1012.9mb 69f 58f
5:42 1 3 mph 1013mb 69f 58f
5:36 3 5 mph 1013mb 69f 58f
5:30 3 5 mph 1013mb 69f 58f
5:24 2 3 mph 1013mb 70f 58f
5:18 3 5 mph 1013mb 70f 58f
5:12 3 5 mph 1013mb 70f 58f
5:06 2 5 mph 1013.1mb 70f 58f
5:00 5
mph
1013mb 70f 58f
4:54 5 6 mph 1013mb 70f 58f
4:48 3 5 mph 1013mb 70f 58f
4:42 3 5 mph 1013.1mb 70f 58f
4:36 5 7 mph 1013.1mb 70f 58f
4:30 6 7 mph 1013mb 70f 58f
4:24 5 6 mph 1013.1mb 70f 58f
4:18 2 3 mph 1013.2mb 70f 58f
4:12 3 5 mph 1013.2mb 69f 58f
4:06 3 6 mph 1013.2mb 69f 58f
4:00 3 6 mph 1013.3mb 69f 58f
3:54 5 6 mph 1013.3mb 69f 58f
3:48 3 6 mph 1013.3mb 69f 58f
3:42 3 5 mph 1013.3mb 69f 58f
3:36 3 5 mph 1013.3mb 69f 59f
3:30 3 5 mph 1013.3mb 69f 58f
3:24 3 6 mph 1013.3mb 69f 58f
3:18 3 6 mph 1013.4mb 69f 58f
3:12 5 6 mph 1013.4mb 69f 58f
3:06 5 7 mph 1013.4mb 69f 58f
3:00 5 6 mph 1013.5mb 69f 58f
2:54 3 6 mph 1013.5mb 69f 59f
2:48 5 6 mph 1013.5mb 69f 58f
2:42 5 6 mph 1013.5mb 69f 58f
2:36 5 6 mph 1013.5mb 69f 59f
2:30 5 7 mph 1013.5mb 70f 59f
2:24 5 7 mph 1013.6mb 70f 59f
2:18 6 8 mph 1013.6mb 70f 59f
2:12 6 7 mph 1013.6mb 70f 59f
2:06 3 6 mph 1013.5mb 70f 59f
2:00 5 6 mph 1013.5mb 71f 59f
1:54 3 6 mph 1013.6mb 71f 59f
1:48 5 7 mph 1013.6mb 71f 59f
1:42 6 7 mph 1013.6mb 72f 59f
1:36 6 7 mph 1013.6mb 71f 59f
1:30 6 8 mph 1013.7mb 72f 59f
1:24 5 6 mph 1013.6mb 72f 60f
1:18 5 6 mph 1013.7mb 72f 59f
1:12 5 7 mph 1013.8mb 72f 59f
1:06 3 7 mph 1013.8mb 72f 60f
1:00 2 6 mph 1014mb 72f 60f
12:54 1 3 mph 1014mb 72f 61f
12:48 1 5 mph 1014mb 72f 61f
12:42 1 5 mph 1014.1mb 72f 61f
12:36  -  5 mph 1014.1mb 72f 61f
12:30 1 6 mph 1014.1mb 72f 61f
12:24 1 5 mph 1014.2mb 72f 61f
12:18 2 5 mph 1014.2mb 72f 60f
12:12 1 6 mph 1014.3mb 72f 60f
12:06 2 6 mph 1014.4mb 72f 61f
12:00 2 5 mph 1014.5mb 72f 61f
vie 07/03 11:54 1 5 mph 1014.6mb 72f 61f
11:48 2 6 mph 1014.6mb 72f 60f
11:42 2 6 mph 1014.6mb 72f 61f
11:36 5 7 mph 1014.6mb 72f 61f
11:30 3 6 mph 1014.6mb - 61f
11:24 1 5 mph 1014.6mb - 61f
11:18 2 6 mph 1014.7mb 72f 61f
11:12  -  3 mph 1014.7mb 72f 61f
11:06 2 6 mph 1014.8mb 72f 61f
11:00 1 5 mph 1014.8mb 72f 61f
10:54 2 8 mph 1014.8mb 72f 61f
10:48 2 6 mph 1014.9mb 72f 62f
10:42  -  6 mph 1014.9mb 72f 61f
10:36 1 3 mph 1014.9mb 72f 61f
10:30 1 6 mph 1014.9mb 71f 62f
10:24 2 7 mph 1015mb 71f 62f
10:18 1 6 mph 1015mb 71f 62f
10:12 3 6 mph 1015mb 71f 62f
10:06 3 6 mph 1014.9mb 71f 62f
10:00 1 6 mph 1014.9mb 71f 62f
9:54 2 8 mph 1014.9mb 71f 62f
9:48 1 7 mph 1014.9mb 71f 62f
9:42 2 8 mph 1014.9mb 71f 62f
9:36 2 6 mph 1014.8mb 71f 62f
9:30 1 6 mph 1014.7mb 71f 62f
9:24 3 10 mph 1014.7mb 71f 62f
9:18 2 8 mph 1014.6mb 71f 63f
9:12 3 11 mph 1014.6mb 71f 63f
9:06 5 11 mph 1014.5mb 71f 63f
9:00 2 9 mph 1014.5mb 71f 63f
8:54 3 10 mph 1014.5mb 71f 63f
8:48 3 9 mph 1014.5mb 71f 63f
8:42 5 11 mph 1014.4mb 71f 63f
8:36 6 11 mph 1014.4mb 71f 63f
8:30 5 13 mph 1014.3mb 71f 64f
8:24 9 15 mph 1014.3mb 71f 63f
8:18 3 11 mph 1014.4mb 71f 64f
8:12 6 11 mph 1014.3mb 71f 64f
8:06 6 14 mph 1014.3mb 71f 64f
8:00 6 11 mph 1014.3mb 71f 64f
7:54 7 14 mph 1014.4mb 71f 64f
7:48 7 13 mph 1014.4mb 71f 64f
7:42 6 15 mph 1014.4mb 71f 64f
7:36 7 13 mph 1014.4mb 71f 64f
7:30 6 13 mph 1014.4mb 71f 64f
7:24 7 13 mph 1014.4mb 71f 65f
7:18 5 14 mph 1014.4mb 71f 65f
7:12 7 14 mph 1014.4mb 71f 65f
7:06 8 14 mph 1014.4mb 71f 65f
7:00 7 14 mph 1014.4mb 70f 65f
6:54 9 15 mph 1014.4mb 70f 65f
6:48 7 15 mph 1014.5mb 70f 65f
6:42 9 15 mph 1014.5mb 70f 65f
6:36 5 14 mph 1014.5mb 70f 65f
6:30 9 14 mph 1014.5mb 70f 65f
6:24 6 14 mph 1014.5mb 70f 65f
6:18 8 15 mph 1014.6mb 70f 65f
6:12 10 14 mph 1014.6mb 70f 65f
6:06 7 14 mph 1014.6mb 70f 65f
6:00 8 14 mph 1014.7mb 70f 65f
5:54 8 14 mph 1014.7mb 70f 65f
5:48 6 13 mph 1014.8mb 70f 66f
5:42 9 15 mph 1014.9mb 70f 66f
5:36 9 14 mph 1014.8mb 70f 65f
5:30 8 14 mph 1014.9mb 71f 66f
5:24 9 15 mph 1014.9mb 71f 66f
5:18 7 15 mph 1015mb 71f 66f
5:12 10 15 mph 1015mb 71f 65f
5:06 8 16 mph 1015mb 71f 66f
5:00 8 15 mph 1015mb 71f 65f
4:54 7 17 mph 1015mb 71f 66f
4:48 8 14 mph 1015.1mb 71f 65f
4:42 8 15 mph 1015.1mb 70f 65f
4:36 7 15 mph 1015.2mb 70f 65f
4:30 10 16 mph 1015.3mb 70f 65f
4:24 10 16 mph 1015.3mb 70f 65f
4:18 9 16 mph 1015.4mb 70f 65f
4:12 10 15 mph 1015.5mb 70f 65f
4:06 9 15 mph 1015.5mb 70f 66f
4:00 8 16 mph 1015.5mb 70f 66f
3:54 9 17 mph 1015.6mb 70f 65f
3:48 9 15 mph 1015.6mb 70f 65f
3:42 9 16 mph 1015.6mb 70f 65f
3:36 6 16 mph 1015.6mb 71f 66f
3:30 8 15 mph 1015.6mb 71f 65f
3:24 8 15 mph 1015.7mb 71f 65f
3:18 10 16 mph 1015.7mb 71f 65f
3:12 7 14 mph 1015.7mb 71f 66f
3:06 7 16 mph 1015.8mb 71f 66f
3:00 3 14 mph 1015.8mb 71f 66f
2:54 6 14 mph 1015.9mb 71f 66f
2:48 6 11 mph 1015.8mb 71f 66f
2:42 6 14 mph 1015.8mb 72f 66f
2:36 8 14 mph 1015.9mb 72f 66f
2:30 5 13 mph 1015.9mb 72f 66f
2:24 5 14 mph 1015.9mb 72f 66f
2:18 7 14 mph 1015.9mb 72f 66f
2:12 5 10 mph 1015.9mb 72f 66f
2:06 3 9 mph 1016mb 72f 67f
2:00 5 10 mph 1016mb 72f 66f
1:54 2 10 mph 1016.1mb 72f 67f
1:48 5 10 mph 1016.1mb 72f 66f
1:42 3 8 mph 1016.1mb 72f 67f
1:36 3 9 mph 1016.2mb 72f 67f
1:30 3 9 mph 1016.2mb 72f 67f
1:24 5 13 mph 1016.2mb 72f 66f
1:18 5 10 mph 1016.3mb 72f 66f
1:12 5 11 mph 1016.3mb 72f 66f
1:06 6 11 mph 1016.3mb 72f 66f
1:00 5 13 mph 1016.3mb 72f 66f
12:54 5 13 mph 1016.3mb 72f 66f
12:48 6 13 mph 1016.4mb 72f 65f
12:42 3 9 mph 1016.4mb 72f 66f
12:36 6 11 mph 1016.4mb 72f 65f
12:30 5 10 mph 1016.5mb 72f 66f
12:24 3 10 mph 1016.6mb 72f 66f
12:18 2 9 mph 1016.5mb 72f 66f
12:12 5 11 mph 1016.5mb 72f 66f
12:06 2 10 mph 1016.5mb 72f 66f
12:00 5 11 mph 1016.5mb 72f 66f
11:54 3 9 mph 1016.6mb 72f 65f
11:48 6 9 mph 1016.7mb 72f 65f
11:42 5 9 mph 1016.7mb 72f 65f
11:36 6 8 mph 1016.7mb 72f 64f
11:30 3 8 mph 1016.7mb 71f 65f
11:24 5 7 mph 1016.7mb 71f 64f
11:18 5 9 mph 1016.7mb 71f 64f
11:12 3 9 mph 1016.7mb 71f 64f
11:06 7 9 mph 1016.7mb 71f 63f
11:00 6 9 mph 1016.7mb 71f 64f
10:54 6 10 mph 1016.7mb 71f 63f
10:48 7 13 mph 1016.7mb 71f 63f
10:42 5 8 mph 1016.7mb 71f 63f
10:36 7 11 mph 1016.7mb 71f 62f
10:30 5 9 mph 1016.7mb 71f 63f
10:24 5 9 mph 1016.7mb 71f 62f
10:18 6 8 mph 1016.8mb 71f 62f
10:12 7 9 mph 1016.8mb 71f 61f
10:06 5 9 mph 1016.8mb 71f 62f
10:00 5 9 mph 1016.8mb 71f 62f
9:54 6 8 mph 1016.7mb 71f 62f
9:48 2 9 mph 1016.8mb 71f 62f
9:42 5 8 mph 1016.8mb 71f 62f
9:36 3 8 mph 1016.8mb 71f 61f
9:30 6 7 mph 1016.9mb 70f 61f
9:24 2 8 mph 1016.9mb 70f 62f
9:18 5 8 mph 1016.8mb 70f 62f
9:12 2 7 mph 1016.8mb 70f 61f
9:06 5 7 mph 1016.7mb 70f 61f
9:00 5 7 mph 1016.7mb 69f 60f
8:54 6 7 mph 1016.8mb 69f 60f
8:48 5 7 mph 1016.7mb 69f 61f
8:42 6 8 mph 1016.7mb 69f 61f
8:36 3 6 mph 1016.8mb 69f 61f
8:30 6 7 mph 1016.8mb 69f 61f
8:24 2 8 mph 1016.8mb 69f 61f
8:18 5 7 mph 1016.7mb 69f 61f
8:12 5 7 mph 1016.7mb 69f 60f
8:06 5 8 mph 1016.7mb 69f 60f
8:00 5 7 mph 1016.7mb 69f 60f
7:54 3 7 mph 1016.6mb 69f 61f
7:48 6 8 mph 1016.6mb 69f 60f
7:42 6 8 mph 1016.6mb 69f 60f
7:36 6 8 mph 1016.6mb 68f 60f
7:30 3 6 mph 1016.6mb 69f 61f
7:24 2 6 mph 1016.5mb 69f 61f
7:18 3 6 mph 1016.5mb 69f 61f
7:12 3 6 mph 1016.5mb 69f 60f
7:06 5 7 mph 1016.5mb 69f 60f
7:00 2 6 mph 1016.5mb 69f 60f
6:54 2 7 mph 1016.5mb 69f 60f
6:48 6 8 mph 1016.5mb 69f 60f
6:42 5 7 mph 1016.4mb 69f 60f
6:36 6 7 mph 1016.4mb 69f 60f
6:30 6 8 mph 1016.4mb 69f 60f
6:24 5 6 mph 1016.4mb 68f 59f
6:18 5 6 mph 1016.4mb 68f 59f
6:12 5 6 mph 1016.4mb 68f 60f
6:06 2 5 mph 1016.4mb 68f 59f
6:00 2 6 mph 1016.4mb 68f 59f
5:54 2 3 mph 1016.4mb 68f 60f
5:48 3 5 mph 1016.3mb 68f 59f
5:42 3 5 mph 1016.2mb 68f 59f
5:36 3 6 mph 1016.2mb 68f 60f
5:30 2 5 mph 1016.2mb 68f 60f
5:24 5 6 mph 1016.2mb 68f 60f
5:18 6 7 mph 1016.2mb 68f 60f
5:12 7 8 mph 1016.2mb 68f 60f
5:06 6 8 mph 1016.1mb 68f 60f
5:00 8 9 mph 1016.2mb 69f 59f
4:54 7 8 mph 1016.1mb 69f 60f
4:48 5 7 mph 1016.1mb 69f 60f
4:42 5 6 mph 1016.1mb 69f 60f
4:36 5 7 mph 1016.1mb 69f 60f
4:30 6 7 mph 1016.1mb 69f 60f
4:24 5 7 mph 1016.2mb 69f 60f
4:18 2 7 mph 1016.2mb 69f 60f
4:12 5 7 mph 1016.1mb 68f 60f
4:06 3 8 mph 1016.1mb 68f 60f
4:00 7 8 mph 1016.2mb 70f 60f
3:54 6 9 mph 1016.2mb 70f 60f
3:48 8 10 mph 1016.2mb 70f 60f
3:42 6 8 mph 1016.2mb 70f 60f
3:36 2 3 mph 1016.3mb 69f 60f
3:30 2 3 mph 1016.2mb 69f 60f
3:24 3 6 mph 1016.3mb 69f 60f
3:18 5 7 mph 1016.2mb 69f 60f
3:12 5 8 mph 1016.2mb 69f 60f
3:06 7 8 mph 1016.2mb 68f 60f
3:00 7 8 mph 1016.2mb 68f 60f
2:54 6 8 mph 1016.2mb 69f 60f
2:48 5 7 mph 1016.3mb 68f 60f
2:42 5 7 mph 1016.3mb 68f 60f
2:36 5 7 mph 1016.3mb 68f 60f
2:30 6 8 mph - 68f 60f
2:24 6 9 mph - 68f 61f
2:18 6 8 mph 1016.2mb 69f 60f
2:12 5 8 mph 1016.2mb 69f 60f
2:06 3 8 mph 1016.2mb 69f 60f
2:00 6 9 mph 1016.2mb 69f 60f
1:54 6 8 mph 1016.2mb 69f 60f
1:48 7 10 mph 1016.2mb 69f 59f
1:42 6 9 mph 1016.2mb 69f 60f
1:36 6 8 mph 1016.2mb 69f 60f
1:30 6 8 mph 1016.2mb 69f 59f
1:24 6 8 mph 1016.2mb 69f 59f
1:18 6 8 mph 1016.2mb 70f 59f
1:12 6 8 mph 1016.2mb 70f 60f
1:06 5 6 mph 1016.2mb 70f 60f
1:00 6 8 mph 1016.3mb 70f 60f
12:54 6 8 mph 1016.3mb 71f 60f
12:48 7 9 mph 1016.3mb 71f 60f
12:42 5 6 mph 1016.4mb 71f 59f
12:36 5
mph
1016.4mb 71f 59f
12:30 2 5 mph 1016.3mb 71f 59f
12:24 5 6 mph 1016.3mb 71f 59f
12:18 3 6 mph 1016.3mb 71f 59f
12:12 5 7 mph 1016.2mb 71f 59f
12:06 3 6 mph 1016.2mb 71f 59f
12:00 3 6 mph 1016.2mb 72f 59f
jue 07/02 11:54 3 6 mph 1016.2mb 72f 59f
11:48 5
mph
- - 60f
11:42 5 7 mph - - 60f
11:36 3 7 mph - - 60f
11:30 6 8 mph 1016.2mb 72f 60f
11:24 6 8 mph 1016.2mb 72f 60f
11:18 7 9 mph 1016.1mb 72f 60f
11:12 7 8 mph 1016.1mb 72f 60f
11:06 5 7 mph 1016.2mb 72f 60f
11:00 5 8 mph 1016.1mb 72f 60f
10:54 3 6 mph 1016.1mb 72f 60f
10:48 6 10 mph 1016.1mb 72f 60f
10:42 5 8 mph 1016.2mb 72f 61f
10:36 5 9 mph 1016.2mb 72f 61f
10:30 7 9 mph 1016.3mb 72f 61f
10:24 5 9 mph 1016.2mb 72f 61f
10:18 7 10 mph 1016.2mb 72f 62f
10:12 8 10 mph 1016.2mb 72f 61f
10:06 8 10 mph 1016.2mb 72f 62f
10:00 8 10 mph 1016.1mb 72f 62f
9:54 8 11 mph 1016.1mb 72f 62f
9:48 8 11 mph 1016.1mb 72f 62f
9:42 8 13 mph 1016.1mb 72f 62f
9:36 10 14 mph 1015.9mb 71f 62f
9:30 11 15 mph 1015.9mb 71f 63f
9:24 10 16 mph 1015.9mb 71f 63f
9:18 13 16 mph 1016mb 71f 63f
9:12 13 16 mph 1016mb 71f 64f
9:06 10 16 mph 1016mb 71f 63f
9:00 13 18 mph 1016mb 71f 64f
8:54 10 14 mph 1016mb 71f 64f
8:48 10 14 mph 1016mb 71f 64f
8:42 8 15 mph 1016mb 71f 64f
8:36 13 15 mph 1016mb 71f 64f
8:30 10 14 mph 1016mb 71f 64f
8:24 11 15 mph 1016mb 71f 64f
8:18 10 14 mph 1016.1mb 71f 65f
8:12 10 16 mph 1016.1mb 71f 65f
8:06 9 14 mph 1016.1mb 71f 65f
8:00 9 15 mph 1016.1mb 71f 65f
7:54 10 15 mph 1016.1mb 71f 65f
7:48 9 14 mph 1016.1mb 71f 66f
7:42 9 15 mph 1016.1mb 71f 66f
7:36 9 16 mph 1016.1mb 71f 66f
7:30 8 14 mph 1016.2mb 71f 66f
7:24 8 14 mph 1016.2mb 71f 67f
7:18 8 14 mph 1016.3mb 71f 67f
7:12 7 14 mph 1016.2mb 71f 67f
7:06 10 15 mph 1016.2mb 71f 67f
7:00 10 15 mph 1016.2mb 71f 67f
6:54 13 17 mph 1016.1mb 71f 67f
6:48 9 16 mph 1016.1mb 71f 67f
6:42 11 16 mph 1016.2mb 71f 67f
6:36 14 20 mph 1016.2mb 70f 67f
6:30 11 16 mph 1016.2mb 70f 67f
6:24 10 16 mph 1016.2mb 70f 67f
6:18 13 18 mph 1016.2mb 70f 67f
6:12 14 17 mph 1016.1mb 70f 67f
6:06 13 18 mph 1016.1mb 69f 67f
6:00 13 17 mph 1016.1mb 69f 67f
5:54 11 21 mph 1016.1mb 69f 67f
5:48 15 18 mph 1016mb 69f 67f
5:42 11 18 mph 1016.1mb 69f 67f
5:36 11 17 mph 1016.1mb 69f 66f
5:30 10 18 mph 1016.1mb 69f 67f
5:24 10 18 mph 1016.1mb 69f 67f
5:18 10 20 mph 1016mb 69f 67f
5:12 10 20 mph 1016mb 69f 67f
5:06 11 16 mph 1016mb 69f 67f
5:00 9 16 mph 1015.9mb 70f 68f
4:54 13 20 mph 1016mb 70f 67f
4:48 11 20 mph 1016mb 70f 67f
4:42 8 18 mph 1015.9mb 70f 68f
4:36 11 17 mph 1016mb 70f 68f
4:30 9 17 mph 1016.1mb 70f 68f
4:24 8 17 mph 1016.2mb 70f 69f
4:18 10 17 mph 1016.2mb 70f 68f
4:12 8 18 mph 1016.4mb 70f 69f
4:06 10 18 mph 1016.5mb 70f 69f
4:00 11 18 mph 1016.5mb 70f 68f
3:54 11 17 mph 1016.4mb 70f 68f
3:48 10 22 mph 1016.4mb 70f 67f
3:42 14 20 mph 1016.5mb 70f 67f
3:36 10 20 mph 1016.5mb 70f 67f
3:30 10 20 mph 1016.5mb 70f 67f
3:24 10 17 mph 1016.5mb 70f 68f
3:18 11 18 mph 1016.6mb 70f 68f
3:12 13 21 mph 1016.7mb 70f 68f
3:06 13 18 mph 1016.8mb 70f 67f
3:00 10 20 mph 1016.8mb 70f 67f
2:54 9 18 mph 1016.8mb 70f 67f
2:48 10 17 mph 1016.9mb 71f 67f
2:42 10 20 mph 1016.9mb 71f 67f
2:36 7 17 mph 1016.8mb 71f 68f
2:30 9 20 mph 1016.9mb 71f 67f
2:24 9 16 mph 1016.8mb 71f 67f
2:18 7 16 mph 1016.8mb 71f 68f
2:12 8 16 mph 1016.9mb 71f 67f
2:06 7 14 mph 1016.9mb 72f 68f
2:00 7 18 mph 1017mb 72f 67f
1:54 9 17 mph 1017.1mb 72f 67f
1:48 7 14 mph 1017.1mb 72f 67f
1:42 6 14 mph 1017.1mb 72f 67f
1:36 5 14 mph 1017.1mb 72f 67f
1:30 5 14 mph 1017.2mb 72f 67f
1:24 3 13 mph 1017.2mb 72f 67f
1:18 6 15 mph 1017.2mb 72f 67f
1:12 5 13 mph 1017.2mb 72f 67f
1:06 6 15 mph 1017.2mb 72f 67f
1:00 8 13 mph 1017.2mb 72f 66f
12:54 5 13 mph 1017.2mb 72f 67f
12:48 7 15 mph 1017.3mb 72f 67f
12:42 6 11 mph 1017.3mb 72f 67f
12:36 5 14 mph 1017.3mb 72f 67f
12:30 5 10 mph 1017.3mb 72f 67f
12:24 7 14 mph 1017.3mb 72f 67f
12:18 6 16 mph 1017.3mb 72f 68f
12:12 7 14 mph 1017.3mb 72f 68f
12:06 6 9 mph 1017.3mb 72f 68f
12:00 5 9 mph 1017.2mb 72f 69f
11:54 3 8 mph 1017.2mb 72f 69f
11:48 1 7 mph 1017.1mb 72f 69f
11:42 3 6 mph 1017mb 72f 68f
11:36 1 6 mph 1017mb 71f 69f
11:30  -  5 mph 1017mb 71f 69f
11:24  -  3 mph 1017mb 71f 70f
11:18 1 3 mph 1017.1mb 71f 69f
11:12  -  5 mph 1017.2mb 71f 69f
11:06 2 5 mph 1017.2mb 71f 68f
11:00 1 6 mph 1017.2mb 71f 68f
10:54 1 5 mph 1017.3mb 71f 67f
10:48 2 5 mph 1017.2mb 71f 66f
10:42 1 3 mph 1017.3mb 71f 66f
10:36 1 5 mph 1017.2mb 71f 66f
10:30 1 5 mph 1017.3mb 71f 65f
10:24 1 5 mph 1017.4mb 71f 65f
10:18 3 6 mph 1017.3mb 71f 64f
10:12 2 6 mph 1017.3mb 71f 64f
10:06 1 3 mph 1017.4mb 71f 64f
10:00 1 6 mph 1017.4mb 71f 64f
9:54 2 6 mph 1017.5mb 71f 63f
9:48 3 6 mph 1017.5mb 71f 63f
9:42 1 3 mph 1017.6mb 70f 63f
9:36  -  3 mph 1017.6mb 70f 62f
9:30  -  mph 1017.8mb 70f 62f
9:24  -  mph - - 62f
9:18  -  mph - - 62f
9:12  -  mph 1017.6mb - 61f
9:06  -  mph 1017.5mb 68f 60f
9:00  -  mph 1017.6mb 68f -
8:54  -  mph - 68f 60f
8:48  -  mph 1017.7mb 68f 60f
8:42  -  mph 1017.6mb 68f 60f
8:36  -  mph 1017.6mb 68f 60f
8:30  -  mph 1017.6mb 68f 59f
8:24  -  mph 1017.6mb 68f 59f
8:18 3 7 mph 1017.7mb 68f 59f
8:12 5 8 mph 1017.7mb 68f 59f
8:06 7 8 mph 1017.7mb 68f 59f
8:00 6 8 mph 1017.7mb 68f 59f
7:54 6 8 mph 1017.6mb 68f 59f
7:48 7 8 mph 1017.6mb 68f 59f
7:42 6 8 mph 1017.6mb 68f 59f
7:36 6 7 mph 1017.5mb 68f 59f
7:30 6 7 mph 1017.5mb 68f 59f
7:24 3 5 mph 1017.5mb 68f 59f
7:18 5 6 mph 1017.4mb 68f 59f
7:12 2 3 mph 1017.3mb 68f 59f
7:06 1 2 mph 1017.3mb 68f 59f
7:00 2 3 mph 1017.3mb 68f 59f
6:54 2 3 mph 1017.3mb 68f 58f
6:48 2 3 mph 1017.2mb 68f 58f